This is the latest recevied weather packets stored in our database for station/object KY4OP-13. If no packets are shown the sender has not sent any weather packets the latest 10 day(s).
| Time | Temp. | Humidity | Pressure | Rain* | Wind** | Luminosity | Snow |
|---|---|---|---|---|---|---|---|
| 1777690376 | 13.89° C | 61% | 1014.2 hPa | 0 mm | - | - | - |
| 1777690073 | 13.89° C | 61% | 1014 hPa | 0 mm | - | - | - |
| 1777689771 | 13.89° C | 56% | 1013.7 hPa | 0 mm | - | - | - |
| 1777689469 | 14.44° C | 58% | 1013.6 hPa | 0 mm | - | - | - |
| 1777689166 | 13.89° C | 57% | 1013.7 hPa | 0 mm | - | - | - |
| 1777688864 | 13.89° C | 56% | 1013.6 hPa | 0 mm | - | - | - |
| 1777688559 | 13.89° C | 56% | 1013.5 hPa | 0 mm | - | - | - |
| 1777688257 | 13.33° C | 59% | 1013.3 hPa | 0 mm | - | - | - |
| 1777687954 | 13.89° C | 59% | 1013.1 hPa | 0 mm | - | - | - |
| 1777687651 | 14.44° C | 53% | 1013.2 hPa | 0 mm | - | - | - |
| 1777687348 | 14.44° C | 53% | 1013.1 hPa | 0 mm | - | - | - |
| 1777687047 | 14.44° C | 52% | 1013.1 hPa | 0 mm | - | - | - |
| 1777686742 | 14.44° C | 53% | 1013 hPa | 0 mm | - | - | - |
| 1777686440 | 14.44° C | 53% | 1013 hPa | 0 mm | - | - | - |
| 1777686137 | 13.89° C | 53% | 1012.9 hPa | 0 mm | - | - | - |
| 1777685833 | 13.33° C | 54% | 1012.8 hPa | 0 mm | - | - | - |
| 1777685528 | 12.78° C | 55% | 1012.9 hPa | 0 mm | - | - | - |
| 1777685226 | 12.78° C | 58% | 1012.9 hPa | 0 mm | - | - | - |
| 1777684924 | 13.33° C | 57% | 1012.7 hPa | 0 mm | - | - | - |
| 1777684620 | 13.33° C | 56% | 1012.9 hPa | 0 mm | - | - | - |
| 1777684316 | 13.33° C | 55% | 1013 hPa | 0 mm | - | - | - |
| 1777684014 | 13.33° C | 55% | 1012.7 hPa | 0 mm | - | - | - |
| 1777683710 | 13.33° C | 55% | 1012.6 hPa | 0 mm | - | - | - |
| 1777683407 | 13.89° C | 54% | 1012.5 hPa | 0 mm | - | - | - |
| 1777683105 | 13.89° C | 54% | 1012.5 hPa | 0 mm | - | - | - |
* Rain latest hour (hover to see other rain measurements)
** Current wind speed in m/s (hover to see current wind gust speed)